Hourly Weather Otrokhove

Today, 30 July, Friday

Time Temperature Precipitation Wind Pressure Humidity
00:00 +20°C° 0.1 mm 3 mps 738 mmHg 92%
01:00 +19°C° 0.1 mm 2 mps 738 mmHg 94%
02:00 +19°C° 0 mm 2 mps 738 mmHg 95%
03:00 +19°C° 0 mm 2 mps 738 mmHg 96%
04:00 +19°C° 0 mm 2 mps 738 mmHg 96%
05:00 +19°C° 0 mm 2 mps 738 mmHg 96%
06:00 +20°C° 0 mm 3 mps 738 mmHg 90%
07:00 +22°C° 0 mm 3 mps 739 mmHg 85%
08:00 +23°C° 0 mm 4 mps 739 mmHg 79%
09:00 +26°C° 0 mm 4 mps 739 mmHg 70%
10:00 +27°C° 0 mm 4 mps 739 mmHg 62%
11:00 +29°C° 0 mm 5 mps 739 mmHg 53%
12:00 +29°C° 0 mm 5 mps 739 mmHg 48%
13:00 +30°C° 0 mm 5 mps 739 mmHg 44%
14:00 +32°C° 0 mm 5 mps 739 mmHg 39%
15:00 +30°C° 0 mm 5 mps 739 mmHg 39%
16:00 +30°C° 0 mm 5 mps 739 mmHg 40%
17:00 +29°C° 0 mm 5 mps 739 mmHg 41%
18:00 +27°C° 0 mm 4 mps 739 mmHg 47%
19:00 +25°C° 0 mm 3 mps 739 mmHg 54%
20:00 +23°C° 0 mm 2 mps 740 mmHg 61%
21:00 +21°C° 0 mm 2 mps 740 mmHg 64%
22:00 +20°C° 0 mm 2 mps 740 mmHg 66%
23:00 +21°C° 0 mm 1 mps 740 mmHg 69%

Tomorrow, 31 July, Saturday

Time Temperature Precipitation Wind Pressure Humidity
00:00 +19°C° 0 mm 2 mps 740 mmHg 70%
01:00 +19°C° 0 mm 2 mps 740 mmHg 71%
02:00 +19°C° 0 mm 2 mps 740 mmHg 72%
03:00 +19°C° 0 mm 2 mps 740 mmHg 70%
04:00 +19°C° 0 mm 2 mps 740 mmHg 69%
05:00 +20°C° 0 mm 2 mps 740 mmHg 68%
06:00 +21°C° 0 mm 3 mps 741 mmHg 63%
07:00 +23°C° 0 mm 4 mps 741 mmHg 57%
08:00 +26°C° 0 mm 4 mps 741 mmHg 51%
09:00 +28°C° 0 mm 4 mps 741 mmHg 47%
10:00 +29°C° 0 mm 4 mps 741 mmHg 43%
11:00 +32°C° 0 mm 5 mps 741 mmHg 39%
12:00 +32°C° 0 mm 5 mps 741 mmHg 37%
13:00 +33°C° 0 mm 5 mps 741 mmHg 35%
14:00 +33°C° 0 mm 5 mps 741 mmHg 33%
15:00 +33°C° 0 mm 4 mps 741 mmHg 34%
16:00 +33°C° 0 mm 4 mps 741 mmHg 35%
17:00 +33°C° 0 mm 4 mps 741 mmHg 36%
18:00 +30°C° 0 mm 3 mps 741 mmHg 41%
19:00 +28°C° 0 mm 2 mps 741 mmHg 46%
20:00 +26°C° 0 mm 1 mps 741 mmHg 51%
21:00 +25°C° 0 mm 2 mps 741 mmHg 52%
22:00 +24°C° 0 mm 2 mps 741 mmHg 53%
23:00 +24°C° 0 mm 2 mps 741 mmHg 53%

Day after tomorrow, 1 August, Sunday

Time Temperature Precipitation Wind Pressure Humidity
00:00 +23°C° 0 mm 2 mps 741 mmHg 55%
01:00 +23°C° 0 mm 2 mps 741 mmHg 57%
02:00 +21°C° 0 mm 2 mps 741 mmHg 59%
03:00 +21°C° 0 mm 2 mps 741 mmHg 61%
04:00 +21°C° 0 mm 3 mps 741 mmHg 62%
05:00 +20°C° 0 mm 3 mps 741 mmHg 63%
06:00 +24°C° 0 mm 3 mps 741 mmHg 57%
07:00 +26°C° 0 mm 4 mps 741 mmHg 51%
08:00 +28°C° 0 mm 4 mps 741 mmHg 46%
09:00 +30°C° 0 mm 5 mps 741 mmHg 41%
10:00 +33°C° 0 mm 5 mps 741 mmHg 37%
11:00 +34°C° 0 mm 6 mps 741 mmHg 33%
12:00 +35°C° 0 mm 6 mps 741 mmHg 31%
13:00 +35°C° 0 mm 6 mps 740 mmHg 30%
14:00 +36°C° 0 mm 6 mps 740 mmHg 28%
15:00 +35°C° 0 mm 5 mps 740 mmHg 32%
16:00 +35°C° 0 mm 4 mps 740 mmHg 35%
17:00 +34°C° 0 mm 4 mps 740 mmHg 38%
18:00 +30°C° 0.9 mm 4 mps 740 mmHg 51%
19:00 +27°C° 0.9 mm 5 mps 740 mmHg 64%
20:00 +23°C° 0.9 mm 5 mps 740 mmHg 77%
21:00 +22°C° 0.5 mm 4 mps 740 mmHg 77%
22:00 +22°C° 0.5 mm 3 mps 740 mmHg 77%
23:00 +21°C° 0.5 mm 2 mps 740 mmHg 78%

2 August, Monday

Time Temperature Precipitation Wind Pressure Humidity
00:00 +21°C° 0.5 mm 2 mps 740 mmHg 80%
01:00 +20°C° 0.5 mm 2 mps 739 mmHg 83%
02:00 +20°C° 0.5 mm 2 mps 739 mmHg 86%
03:00 +20°C° 0.8 mm 2 mps 739 mmHg 87%
04:00 +20°C° 0.8 mm 2 mps 739 mmHg 89%
05:00 +20°C° 0.8 mm 2 mps 739 mmHg 91%
06:00 +20°C° 0.4 mm 3 mps 739 mmHg 90%
07:00 +21°C° 0.4 mm 3 mps 739 mmHg 89%
08:00 +21°C° 0.4 mm 4 mps 739 mmHg 88%
09:00 +25°C° 0.1 mm 5 mps 738 mmHg 76%
10:00 +28°C° 0.1 mm 6 mps 738 mmHg 63%
11:00 +32°C° 0.1 mm 7 mps 738 mmHg 50%
12:00 +33°C° 0 mm 7 mps 738 mmHg 47%
13:00 +34°C° 0 mm 7 mps 738 mmHg 44%
14:00 +35°C° 0 mm 6 mps 737 mmHg 41%
15:00 +32°C° 0.3 mm 5 mps 737 mmHg 52%
16:00 +28°C° 0.3 mm 4 mps 737 mmHg 62%
17:00 +25°C° 0.3 mm 3 mps 737 mmHg 73%
18:00 +24°C° 0.3 mm 3 mps 737 mmHg 77%
19:00 +22°C° 0.3 mm 3 mps 738 mmHg 81%
20:00 +22°C° 0.3 mm 3 mps 738 mmHg 85%
21:00 +21°C° 0.1 mm 3 mps 738 mmHg 88%
22:00 +20°C° 0.1 mm 2 mps 739 mmHg 90%
23:00 +19°C° 0.1 mm 2 mps 739 mmHg 93%

3 August, Tuesday

Time Temperature Precipitation Wind Pressure Humidity
00:00 +18°C° 0 mm 2 mps 739 mmHg 93%
01:00 +18°C° 0 mm 3 mps 739 mmHg 93%
02:00 +17°C° 0 mm 3 mps 740 mmHg 93%
03:00 +17°C° 0 mm 3 mps 740 mmHg 94%
04:00 +16°C° 0 mm 3 mps 740 mmHg 94%
05:00 +16°C° 0 mm 3 mps 741 mmHg 95%
06:00 +17°C° 0 mm 3 mps 741 mmHg 87%
07:00 +19°C° 0 mm 3 mps 742 mmHg 79%
08:00 +20°C° 0 mm 4 mps 742 mmHg 72%
09:00 +22°C° 0 mm 3 mps 742 mmHg 64%
10:00 +24°C° 0 mm 3 mps 742 mmHg 57%
11:00 +25°C° 0 mm 3 mps 742 mmHg 50%
12:00 +26°C° 0 mm 3 mps 742 mmHg 48%
13:00 +26°C° 0 mm 3 mps 742 mmHg 47%
14:00 +26°C° 0 mm 4 mps 742 mmHg 46%
15:00 +26°C° 0 mm 3 mps 742 mmHg 47%
16:00 +25°C° 0 mm 3 mps 743 mmHg 49%
17:00 +25°C° 0 mm 2 mps 743 mmHg 50%
18:00 +24°C° 0.1 mm 2 mps 743 mmHg 55%
19:00 +23°C° 0.1 mm 2 mps 743 mmHg 60%
20:00 +20°C° 0.1 mm 2 mps 744 mmHg 65%
21:00 +19°C° 0 mm 2 mps 744 mmHg 70%
22:00 +19°C° 0 mm 1 mps 744 mmHg 74%
23:00 +18°C° 0 mm 1 mps 744 mmHg 79%

4 August, Wednesday

Time Temperature Precipitation Wind Pressure Humidity
00:00 +18°C° 0 mm 1 mps 744 mmHg 81%
01:00 +16°C° 0 mm 1 mps 744 mmHg 83%
02:00 +16°C° 0 mm 1 mps 744 mmHg 85%
03:00 +16°C° 0 mm 1 mps 745 mmHg 85%
04:00 +16°C° 0 mm 1 mps 745 mmHg 85%
05:00 +16°C° 0 mm 1 mps 745 mmHg 85%
06:00 +19°C° 0 mm 1 mps 745 mmHg 76%
07:00 +21°C° 0 mm 1 mps 745 mmHg 67%
08:00 +23°C° 0 mm 1 mps 745 mmHg 58%
09:00 +24°C° 0 mm 1 mps 745 mmHg 53%
10:00 +25°C° 0 mm 1 mps 745 mmHg 47%
11:00 +27°C° 0 mm 1 mps 745 mmHg 41%
12:00 +27°C° 0 mm 1 mps 745 mmHg 39%
13:00 +28°C° 0 mm 2 mps 745 mmHg 37%
14:00 +28°C° 0 mm 3 mps 745 mmHg 35%
15:00 +28°C° 0 mm 2 mps 745 mmHg 36%
16:00 +27°C° 0 mm 2 mps 745 mmHg 37%
17:00 +27°C° 0 mm 2 mps 745 mmHg 38%
18:00 +26°C° 0 mm 2 mps 745 mmHg 43%
19:00 +24°C° 0 mm 2 mps 745 mmHg 48%
20:00 +21°C° 0 mm 2 mps 745 mmHg 53%
21:00 +20°C° 0 mm 2 mps 745 mmHg 56%
22:00 +20°C° 0 mm 2 mps 745 mmHg 59%
23:00 +19°C° 0 mm 2 mps 745 mmHg 62%
Show more